Time,TemperatureF,DewpointF,PressureIn,WindDirection,WindDirectionDegrees,WindSpeedMPH,WindSpeedGustMPH,Humidity,HourlyPrecipIn,Conditions,Clouds,dailyrainin,SoftwareType,DateUTC
2013-03-07 00:00:00,45.3,14.9,29.93,West,264,0.0,0.0,29,0.00,,---,0.00,VWS V13.01,2013-03-07 07:00:00,
2013-03-07 00:01:00,45.3,14.9,29.91,West,265,0.0,0.0,29,0.00,,---,0.00,VWS V13.01,2013-03-07 07:01:00,
2013-03-07 00:04:00,45.1,14.8,29.91,West,265,0.0,0.0,29,0.00,,---,0.00,VWS V13.01,2013-03-07 07:04:00,
2013-03-07 00:06:00,45.0,14.7,29.91,West,265,0.0,0.0,29,0.00,,---,0.00,VWS V13.01,2013-03-07 07:06:00,
2013-03-07 00:07:00,45.0,14.7,29.92,West,265,0.0,0.0,29,0.00,,---,0.00,VWS V13.01,2013-03-07 07:07:00,
2013-03-07 00:08:00,44.9,14.6,29.92,West,264,1.0,3.0,29,0.00,,---,0.00,VWS V13.01,2013-03-07 07:08:00,
2013-03-07 00:09:00,45.0,14.7,29.92,West,264,1.0,3.0,29,0.00,,---,0.00,VWS V13.01,2013-03-07 07:09:00,
2013-03-07 00:11:00,45.1,14.0,29.92,West,265,0.0,3.0,28,0.00,,---,0.00,VWS V13.01,2013-03-07 07:11:00,
2013-03-07 00:13:00,45.4,14.2,29.91,West,265,0.0,3.0,28,0.00,,---,0.00,VWS V13.01,2013-03-07 07:13:00,
2013-03-07 00:14:00,45.4,14.2,29.91,West,265,0.0,3.0,28,0.00,,---,0.00,VWS V13.01,2013-03-07 07:14:00,
2013-03-07 00:16:00,45.5,14.3,29.90,West,265,0.0,0.0,28,0.00,,---,0.00,VWS V13.01,2013-03-07 07:16:00,
2013-03-07 00:18:00,45.8,14.6,29.90,West,264,0.0,2.0,28,0.00,,---,0.00,VWS V13.01,2013-03-07 07:18:00,
2013-03-07 00:20:00,46.0,15.5,29.90,West,265,0.0,2.0,29,0.00,,---,0.00,VWS V13.01,2013-03-07 07:20:00,
2013-03-07 00:22:00,46.2,15.7,29.90,West,265,0.0,2.0,29,0.00,,---,0.00,VWS V13.01,2013-03-07 07:22:00,
2013-03-07 00:24:00,46.4,15.1,29.90,West,265,0.0,2.0,28,0.00,,---,0.00,VWS V13.01,2013-03-07 07:24:00,
2013-03-07 00:26:00,46.5,15.2,29.90,West,265,0.0,2.0,28,0.00,,---,0.00,VWS V13.01,2013-03-07 07:26:00,
2013-03-07 00:29:00,46.5,15.2,29.90,West,264,0.0,2.0,28,0.00,,---,0.00,VWS V13.01,2013-03-07 07:29:00,
2013-03-07 00:32:00,46.3,15.0,29.90,West,265,0.0,2.0,28,0.00,,---,0.00,VWS V13.01,2013-03-07 07:32:00,
2013-03-07 00:33:00,46.2,14.9,29.90,West,265,0.0,2.0,28,0.00,,---,0.00,VWS V13.01,2013-03-07 07:33:00,
2013-03-07 00:35:00,46.0,14.7,29.90,West,265,2.0,3.0,28,0.00,,---,0.00,VWS V13.01,2013-03-07 07:35:00,
2013-03-07 00:38:00,45.6,14.4,29.90,West,265,2.0,3.0,28,0.00,,---,0.00,VWS V13.01,2013-03-07 07:38:00,
2013-03-07 00:43:00,44.8,14.5,29.92,West,264,2.0,3.0,29,0.00,,---,0.00,VWS V13.01,2013-03-07 07:43:00,
2013-03-07 00:45:00,44.7,14.4,29.92,West,265,0.0,3.0,29,0.00,,---,0.00,VWS V13.01,2013-03-07 07:45:00,
2013-03-07 00:49:00,44.1,14.7,29.92,West,264,0.0,0.0,30,0.00,,---,0.00,VWS V13.01,2013-03-07 07:49:00,
2013-03-07 00:50:00,43.9,15.2,29.92,West,264,0.0,0.0,31,0.00,,---,0.00,VWS V13.01,2013-03-07 07:50:00,
2013-03-07 00:52:00,43.8,15.1,29.92,West,265,3.0,3.0,31,0.00,,---,0.00,VWS V13.01,2013-03-07 07:52:00,
2013-03-07 00:54:00,43.5,14.9,29.92,West,265,0.0,4.0,31,0.00,,---,0.00,VWS V13.01,2013-03-07 07:54:00,
2013-03-07 00:57:00,43.3,14.7,29.93,West,264,0.0,4.0,31,0.00,,---,0.00,VWS V13.01,2013-03-07 07:57:00,
2013-03-07 00:59:00,43.2,14.6,29.93,West,264,1.0,4.0,31,0.00,,---,0.00,VWS V13.01,2013-03-07 07:59:00,
2013-03-07 01:04:00,43.4,16.2,29.92,West,264,1.0,3.0,33,0.00,,---,0.00,VWS V13.01,2013-03-07 08:04:00,
2013-03-07 01:08:00,43.8,16.6,29.92,West,265,0.0,3.0,33,0.00,,---,0.00,VWS V13.01,2013-03-07 08:08:00,
2013-03-07 01:13:00,43.6,16.4,29.92,West,265,0.0,4.0,33,0.00,,---,0.00,VWS V13.01,2013-03-07 08:13:00,
2013-03-07 01:17:00,43.5,16.3,29.92,West,264,2.0,2.0,33,0.00,,---,0.00,VWS V13.01,2013-03-07 08:17:00,
2013-03-07 01:20:00,43.4,16.2,29.92,West,265,0.0,2.0,33,0.00,,---,0.00,VWS V13.01,2013-03-07 08:20:00,
2013-03-07 01:21:00,43.4,16.2,29.92,West,265,0.0,2.0,33,0.00,,---,0.00,VWS V13.01,2013-03-07 08:21:00,
2013-03-07 01:26:00,43.3,16.8,29.92,West,264,1.0,2.0,34,0.00,,---,0.00,VWS V13.01,2013-03-07 08:26:00,
2013-03-07 01:27:00,43.3,16.8,29.92,West,264,1.0,2.0,34,0.00,,---,0.00,VWS V13.01,2013-03-07 08:27:00,
2013-03-07 01:29:00,43.3,17.5,29.92,West,264,0.0,0.0,35,0.00,,---,0.00,VWS V13.01,2013-03-07 08:29:00,
2013-03-07 01:34:00,43.5,17.7,29.92,West,265,0.0,0.0,35,0.00,,---,0.00,VWS V13.01,2013-03-07 08:34:00,
2013-03-07 01:38:00,43.4,17.6,29.92,West,265,0.0,0.0,35,0.00,,---,0.00,VWS V13.01,2013-03-07 08:38:00,
2013-03-07 01:40:00,43.4,17.6,29.92,West,264,0.0,0.0,35,0.00,,---,0.00,VWS V13.01,2013-03-07 08:40:00,
2013-03-07 01:43:00,43.3,17.5,29.92,West,265,0.0,0.0,35,0.00,,---,0.00,VWS V13.01,2013-03-07 08:43:00,
2013-03-07 01:48:00,43.3,18.2,29.92,West,265,0.0,0.0,36,0.00,,---,0.00,VWS V13.01,2013-03-07 08:48:00,
2013-03-07 01:49:00,43.3,18.2,29.92,West,265,0.0,0.0,36,0.00,,---,0.00,VWS V13.01,2013-03-07 08:49:00,
2013-03-07 01:53:00,43.3,18.2,29.92,West,265,1.0,2.0,36,0.00,,---,0.00,VWS V13.01,2013-03-07 08:53:00,
2013-03-07 01:55:00,43.3,18.2,29.92,West,265,2.0,2.0,36,0.00,,---,0.00,VWS V13.01,2013-03-07 08:55:00,
2013-03-07 01:59:00,43.3,18.2,29.92,West,264,1.0,2.0,36,0.00,,---,0.00,VWS V13.01,2013-03-07 08:59:00,
2013-03-07 02:00:00,43.2,18.1,29.91,West,264,1.0,2.0,36,0.00,,---,0.00,VWS V13.01,2013-03-07 09:00:00,
2013-03-07 02:01:00,43.2,18.7,29.91,West,264,1.0,2.0,37,0.00,,---,0.00,VWS V13.01,2013-03-07 09:01:00,
2013-03-07 02:05:00,43.0,17.9,29.91,West,265,0.0,2.0,36,0.00,,---,0.00,VWS V13.01,2013-03-07 09:05:00,
2013-03-07 02:06:00,42.9,17.8,29.91,West,265,0.0,2.0,36,0.00,,---,0.00,VWS V13.01,2013-03-07 09:06:00,
2013-03-07 02:08:00,42.7,18.3,29.91,West,265,0.0,2.0,37,0.00,,---,0.00,VWS V13.01,2013-03-07 09:08:00,
2013-03-07 02:10:00,42.4,18.0,29.91,West,264,0.0,2.0,37,0.00,,---,0.00,VWS V13.01,2013-03-07 09:10:00,
2013-03-07 02:13:00,42.0,18.2,29.91,West,265,2.0,2.0,38,0.00,,---,0.00,VWS V13.01,2013-03-07 09:13:00,
2013-03-07 02:16:00,42.0,18.2,29.91,West,265,3.0,3.0,38,0.00,,---,0.00,VWS V13.01,2013-03-07 09:16:00,
2013-03-07 02:18:00,42.1,18.3,29.91,West,264,3.0,3.0,38,0.00,,---,0.00,VWS V13.01,2013-03-07 09:18:00,
2013-03-07 02:22:00,42.4,18.6,29.90,West,265,2.0,3.0,38,0.00,,---,0.00,VWS V13.01,2013-03-07 09:22:00,
2013-03-07 02:23:00,42.4,18.6,29.90,West,265,1.0,3.0,38,0.00,,---,0.00,VWS V13.01,2013-03-07 09:23:00,
2013-03-07 02:29:00,42.4,18.6,29.90,West,265,1.0,3.0,38,0.00,,---,0.00,VWS V13.01,2013-03-07 09:29:00,
2013-03-07 02:30:00,42.4,18.6,29.90,West,265,1.0,2.0,38,0.00,,---,0.00,VWS V13.01,2013-03-07 09:30:00,
2013-03-07 02:32:00,42.5,18.7,29.90,West,264,1.0,2.0,38,0.00,,---,0.00,VWS V13.01,2013-03-07 09:32:00,
2013-03-07 02:34:00,42.7,18.3,29.90,West,264,1.0,2.0,37,0.00,,---,0.00,VWS V13.01,2013-03-07 09:34:00,
2013-03-07 02:37:00,42.9,18.4,29.90,West,265,1.0,2.0,37,0.00,,---,0.00,VWS V13.01,2013-03-07 09:37:00,
2013-03-07 02:41:00,43.2,18.7,29.90,West,264,3.0,3.0,37,0.00,,---,0.00,VWS V13.01,2013-03-07 09:41:00,
2013-03-07 02:42:00,43.2,18.7,29.90,West,265,2.0,3.0,37,0.00,,---,0.00,VWS V13.01,2013-03-07 09:42:00,
2013-03-07 02:47:00,42.8,18.4,29.90,West,265,0.0,2.0,37,0.00,,---,0.00,VWS V13.01,2013-03-07 09:47:00,
2013-03-07 02:48:00,42.6,18.2,29.90,West,264,0.0,2.0,37,0.00,,---,0.00,VWS V13.01,2013-03-07 09:48:00,
2013-03-07 02:50:00,42.3,17.9,29.90,West,265,2.0,2.0,37,0.00,,---,0.00,VWS V13.01,2013-03-07 09:50:00,
2013-03-07 02:53:00,41.7,16.7,29.90,West,264,4.0,5.0,36,0.00,,---,0.00,VWS V13.01,2013-03-07 09:53:00,
2013-03-07 02:55:00,41.4,16.5,29.90,West,264,5.0,6.0,36,0.00,,---,0.00,VWS V13.01,2013-03-07 09:55:00,
2013-03-07 02:57:00,41.1,16.2,29.91,West,275,5.0,6.0,36,0.00,,---,0.00,VWS V13.01,2013-03-07 09:57:00,
2013-03-07 03:02:00,40.8,15.9,29.91,NW,319,5.0,6.0,36,0.00,,---,0.00,VWS V13.01,2013-03-07 10:02:00,
2013-03-07 03:06:00,40.9,16.0,29.91,NW,318,4.0,6.0,36,0.00,,---,0.00,VWS V13.01,2013-03-07 10:06:00,
2013-03-07 03:07:00,41.0,16.1,29.91,NW,318,4.0,6.0,36,0.00,,---,0.00,VWS V13.01,2013-03-07 10:07:00,
2013-03-07 03:11:00,41.5,15.9,29.90,NW,319,4.0,6.0,35,0.00,,---,0.00,VWS V13.01,2013-03-07 10:11:00,
2013-03-07 03:12:00,41.7,16.1,29.90,NW,319,4.0,6.0,35,0.00,,---,0.00,VWS V13.01,2013-03-07 10:12:00,
2013-03-07 03:13:00,41.8,16.2,29.90,NW,318,5.0,6.0,35,0.00,,---,0.00,VWS V13.01,2013-03-07 10:13:00,
2013-03-07 03:17:00,42.1,15.1,29.90,NW,319,3.0,4.0,33,0.00,,---,0.00,VWS V13.01,2013-03-07 10:17:00,
2013-03-07 03:21:00,42.2,15.2,29.90,NW,318,0.0,4.0,33,0.00,,---,0.00,VWS V13.01,2013-03-07 10:21:00,
2013-03-07 03:24:00,41.9,14.9,29.91,NW,319,0.0,4.0,33,0.00,,---,0.00,VWS V13.01,2013-03-07 10:24:00,
2013-03-07 03:26:00,41.6,14.6,29.91,NW,319,0.0,4.0,33,0.00,,---,0.00,VWS V13.01,2013-03-07 10:26:00,
2013-03-07 03:29:00,40.5,13.7,29.91,NW,319,0.0,4.0,33,0.00,,---,0.00,VWS V13.01,2013-03-07 10:29:00,
2013-03-07 03:30:00,40.4,13.6,29.91,NW,318,0.0,0.0,33,0.00,,---,0.00,VWS V13.01,2013-03-07 10:30:00,
2013-03-07 03:35:00,39.5,12.8,29.92,NW,318,5.0,5.0,33,0.00,,---,0.00,VWS V13.01,2013-03-07 10:35:00,
2013-03-07 03:36:00,39.4,12.7,29.92,NW,320,6.0,8.0,33,0.00,,---,0.00,VWS V13.01,2013-03-07 10:36:00,
2013-03-07 03:40:00,39.4,12.7,29.92,NW,320,4.0,8.0,33,0.00,,---,0.00,VWS V13.01,2013-03-07 10:40:00,
2013-03-07 03:44:00,39.5,12.8,29.92,NW,319,5.0,8.0,33,0.00,,---,0.00,VWS V13.01,2013-03-07 10:44:00,
2013-03-07 03:49:00,40.2,13.4,29.92,NW,320,6.0,7.0,33,0.00,,---,0.00,VWS V13.01,2013-03-07 10:49:00,
2013-03-07 03:52:00,40.2,13.4,29.92,NW,315,4.0,7.0,33,0.00,,---,0.00,VWS V13.01,2013-03-07 10:52:00,
2013-03-07 03:54:00,40.1,13.3,29.92,NW,313,4.0,7.0,33,0.00,,---,0.00,VWS V13.01,2013-03-07 10:54:00,
2013-03-07 03:57:00,40.3,13.5,29.92,NW,313,2.0,7.0,33,0.00,,---,0.00,VWS V13.01,2013-03-07 10:57:00,
2013-03-07 03:59:00,40.5,13.7,29.92,NW,314,3.0,7.0,33,0.00,,---,0.00,VWS V13.01,2013-03-07 10:59:00,
2013-03-07 04:01:00,40.4,12.9,29.92,NW,325,3.0,5.0,32,0.00,,---,0.00,VWS V13.01,2013-03-07 11:01:00,
2013-03-07 04:06:00,38.1,11.6,29.93,North,360,5.0,6.0,33,0.00,,---,0.00,VWS V13.01,2013-03-07 11:06:00,
2013-03-07 04:08:00,37.1,11.3,29.95,North,360,2.0,6.0,34,0.00,,---,0.00,VWS V13.01,2013-03-07 11:08:00,
2013-03-07 04:13:00,35.8,10.8,29.95,North,5,0.0,6.0,35,0.00,,---,0.00,VWS V13.01,2013-03-07 11:13:00,
2013-03-07 04:15:00,35.3,10.4,29.96,North,5,3.0,4.0,35,0.00,,---,0.00,VWS V13.01,2013-03-07 11:15:00,
2013-03-07 04:18:00,34.8,10.6,29.96,North,5,2.0,4.0,36,0.00,,---,0.00,VWS V13.01,2013-03-07 11:18:00,
2013-03-07 04:20:00,34.6,11.0,29.96,North,5,3.0,4.0,37,0.00,,---,0.00,VWS V13.01,2013-03-07 11:20:00,
2013-03-07 04:22:00,34.7,11.1,29.96,North,5,2.0,4.0,37,0.00,,---,0.00,VWS V13.01,2013-03-07 11:22:00,
2013-03-07 04:24:00,34.7,11.1,29.96,North,360,2.0,4.0,37,0.00,,---,0.00,VWS V13.01,2013-03-07 11:24:00,
2013-03-07 04:27:00,34.9,11.3,29.96,North,360,0.0,4.0,37,0.00,,---,0.00,VWS V13.01,2013-03-07 11:27:00,
2013-03-07 04:30:00,35.2,11.6,29.96,North,5,3.0,4.0,37,0.00,,---,0.00,VWS V13.01,2013-03-07 11:30:00,
2013-03-07 04:33:00,35.5,11.8,29.95,North,360,0.0,4.0,37,0.00,,---,0.00,VWS V13.01,2013-03-07 11:33:00,
2013-03-07 04:38:00,36.1,13.0,29.95,NNW,327,1.0,6.0,38,0.00,,---,0.00,VWS V13.01,2013-03-07 11:38:00,
2013-03-07 04:40:00,36.2,13.1,29.95,NW,318,5.0,7.0,38,0.00,,---,0.00,VWS V13.01,2013-03-07 11:40:00,
2013-03-07 04:41:00,36.4,13.2,29.95,WNW,286,4.0,8.0,38,0.00,,---,0.00,VWS V13.01,2013-03-07 11:41:00,
2013-03-07 04:46:00,36.9,14.3,29.94,WNW,286,2.0,4.0,39,0.00,,---,0.00,VWS V13.01,2013-03-07 11:46:00,
2013-03-07 04:49:00,37.0,14.4,29.95,West,267,2.0,9.0,39,0.00,,---,0.00,VWS V13.01,2013-03-07 11:49:00,
2013-03-07 04:52:00,37.2,14.5,29.95,West,267,2.0,9.0,39,0.00,,---,0.00,VWS V13.01,2013-03-07 11:52:00,
2013-03-07 04:54:00,37.4,14.7,29.95,West,267,2.0,9.0,39,0.00,,---,0.00,VWS V13.01,2013-03-07 11:54:00,
2013-03-07 04:57:00,37.4,14.7,29.95,West,267,0.0,9.0,39,0.00,,---,0.00,VWS V13.01,2013-03-07 11:57:00,
2013-03-07 04:58:00,37.3,14.6,29.95,West,267,0.0,9.0,39,0.00,,---,0.00,VWS V13.01,2013-03-07 11:58:00,
2013-03-07 05:02:00,37.2,14.5,29.95,West,267,2.0,3.0,39,0.00,,---,0.00,VWS V13.01,2013-03-07 12:02:00,
2013-03-07 05:06:00,36.9,14.3,29.95,West,267,0.0,3.0,39,0.00,,---,0.00,VWS V13.01,2013-03-07 12:06:00,
2013-03-07 05:08:00,36.9,14.3,29.95,West,267,0.0,3.0,39,0.00,,---,0.00,VWS V13.01,2013-03-07 12:08:00,
2013-03-07 05:10:00,36.9,14.3,29.96,West,267,0.0,3.0,39,0.00,,---,0.00,VWS V13.01,2013-03-07 12:10:00,
2013-03-07 05:14:00,36.9,14.9,29.96,West,267,0.0,3.0,40,0.00,,---,0.00,VWS V13.01,2013-03-07 12:14:00,
2013-03-07 05:17:00,36.9,14.9,29.96,West,267,1.0,2.0,40,0.00,,---,0.00,VWS V13.01,2013-03-07 12:17:00,
2013-03-07 05:24:00,36.7,14.7,29.96,West,267,2.0,3.0,40,0.00,,---,0.00,VWS V13.01,2013-03-07 12:24:00,
2013-03-07 05:26:00,36.5,14.5,29.96,West,267,5.0,5.0,40,0.00,,---,0.00,VWS V13.01,2013-03-07 12:26:00,
2013-03-07 05:29:00,36.6,14.0,29.96,West,267,4.0,5.0,39,0.00,,---,0.00,VWS V13.01,2013-03-07 12:29:00,
2013-03-07 05:32:00,36.9,14.3,29.96,West,267,5.0,5.0,39,0.00,,---,0.00,VWS V13.01,2013-03-07 12:32:00,
2013-03-07 05:34:00,37.3,14.0,29.96,West,267,5.0,6.0,38,0.00,,---,0.00,VWS V13.01,2013-03-07 12:34:00,
2013-03-07 05:39:00,38.0,14.1,29.96,West,267,5.0,6.0,37,0.00,,---,0.00,VWS V13.01,2013-03-07 12:39:00,
2013-03-07 05:42:00,38.2,14.2,29.96,West,267,4.0,6.0,37,0.00,,---,0.00,VWS V13.01,2013-03-07 12:42:00,
2013-03-07 05:44:00,38.4,13.8,29.96,West,267,5.0,6.0,36,0.00,,---,0.00,VWS V13.01,2013-03-07 12:44:00,
2013-03-07 05:48:00,38.9,13.6,29.94,West,268,3.0,6.0,35,0.00,,---,0.00,VWS V13.01,2013-03-07 12:48:00,
2013-03-07 05:51:00,39.3,13.3,29.94,West,271,7.0,7.0,34,0.00,,---,0.00,VWS V13.01,2013-03-07 12:51:00,
2013-03-07 05:53:00,39.6,13.6,29.94,West,279,4.0,7.0,34,0.00,,---,0.00,VWS V13.01,2013-03-07 12:53:00,
2013-03-07 05:54:00,39.7,13.0,29.94,West,281,5.0,7.0,33,0.00,,---,0.00,VWS V13.01,2013-03-07 12:54:00,
2013-03-07 05:59:00,40.1,13.3,29.94,NW,304,7.0,9.0,33,0.00,,---,0.00,VWS V13.01,2013-03-07 12:59:00,
2013-03-07 06:01:00,40.2,13.4,29.97,NW,307,6.0,8.0,33,0.00,,---,0.00,VWS V13.01,2013-03-07 13:01:00,
2013-03-07 06:04:00,40.3,13.5,29.97,NW,309,5.0,8.0,33,0.00,,---,0.00,VWS V13.01,2013-03-07 13:04:00,
2013-03-07 06:05:00,40.3,12.8,29.97,NW,309,5.0,8.0,32,0.00,,---,0.00,VWS V13.01,2013-03-07 13:05:00,
2013-03-07 06:09:00,40.3,12.8,29.97,NW,309,5.0,8.0,32,0.00,,---,0.00,VWS V13.01,2013-03-07 13:09:00,
2013-03-07 06:11:00,40.3,13.5,29.97,NW,309,5.0,8.0,33,0.00,,---,0.00,VWS V13.01,2013-03-07 13:11:00,
2013-03-07 06:13:00,40.3,13.5,29.97,NW,309,2.0,8.0,33,0.00,,---,0.00,VWS V13.01,2013-03-07 13:13:00,
2013-03-07 06:15:00,40.2,13.4,29.97,NW,310,4.0,6.0,33,0.00,,---,0.00,VWS V13.01,2013-03-07 13:15:00,
2013-03-07 06:20:00,38.8,12.9,29.97,NW,312,4.0,6.0,34,0.00,,---,0.00,VWS V13.01,2013-03-07 13:20:00,
2013-03-07 06:24:00,37.3,12.2,29.98,NW,313,3.0,7.0,35,0.00,,---,0.00,VWS V13.01,2013-03-07 13:24:00,
2013-03-07 06:29:00,36.8,12.4,29.98,NW,313,4.0,7.0,36,0.00,,---,0.00,VWS V13.01,2013-03-07 13:29:00,
2013-03-07 06:32:00,37.0,12.5,29.99,NW,313,4.0,5.0,36,0.00,,---,0.00,VWS V13.01,2013-03-07 13:32:00,
2013-03-07 06:34:00,37.3,12.8,29.99,NW,313,3.0,5.0,36,0.00,,---,0.00,VWS V13.01,2013-03-07 13:34:00,
2013-03-07 06:36:00,37.5,13.0,29.98,NW,313,0.0,5.0,36,0.00,,---,0.00,VWS V13.01,2013-03-07 13:36:00,
2013-03-07 06:37:00,37.7,12.5,29.99,NW,313,0.0,5.0,35,0.00,,---,0.00,VWS V13.01,2013-03-07 13:37:00,
2013-03-07 06:40:00,37.7,12.5,29.99,NW,313,0.0,5.0,35,0.00,,---,0.00,VWS V13.01,2013-03-07 13:40:00,
2013-03-07 06:42:00,37.6,12.4,29.99,NW,313,0.0,5.0,35,0.00,,---,0.00,VWS V13.01,2013-03-07 13:42:00,
2013-03-07 06:45:00,37.1,12.0,29.99,NW,313,2.0,3.0,35,0.00,,---,0.00,VWS V13.01,2013-03-07 13:45:00,
2013-03-07 06:48:00,36.2,11.2,30.00,NW,313,3.0,4.0,35,0.00,,---,0.00,VWS V13.01,2013-03-07 13:48:00,
2013-03-07 06:51:00,35.5,11.2,30.00,NW,313,2.0,5.0,36,0.00,,---,0.00,VWS V13.01,2013-03-07 13:51:00,
2013-03-07 06:54:00,34.8,10.6,30.00,NW,313,5.0,5.0,36,0.00,,---,0.00,VWS V13.01,2013-03-07 13:54:00,
2013-03-07 06:58:00,34.1,10.6,30.01,NW,314,3.0,7.0,37,0.00,,---,0.00,VWS V13.01,2013-03-07 13:58:00,
2013-03-07 06:59:00,33.9,10.4,30.02,NW,314,1.0,7.0,37,0.00,,---,0.00,VWS V13.01,2013-03-07 13:59:00,
2013-03-07 07:05:00,33.6,10.1,30.03,NW,314,4.0,5.0,37,0.00,,---,0.00,VWS V13.01,2013-03-07 14:05:00,
2013-03-07 07:08:00,33.9,10.4,30.03,NW,323,6.0,9.0,37,0.00,,---,0.00,VWS V13.01,2013-03-07 14:08:00,
2013-03-07 07:10:00,34.4,10.8,30.03,NNW,328,6.0,10.0,37,0.00,,---,0.00,VWS V13.01,2013-03-07 14:10:00,
2013-03-07 07:14:00,35.5,11.2,30.02,NNW,330,7.0,10.0,36,0.00,,---,0.00,VWS V13.01,2013-03-07 14:14:00,
2013-03-07 07:15:00,35.7,11.4,30.02,NNW,330,7.0,7.0,36,0.00,,---,0.00,VWS V13.01,2013-03-07 14:15:00,
2013-03-07 07:16:00,36.1,11.7,30.02,NNW,330,6.0,10.0,36,0.00,,---,0.00,VWS V13.01,2013-03-07 14:16:00,
2013-03-07 07:21:00,37.7,11.9,30.02,NNW,331,4.0,10.0,34,0.00,,---,0.00,VWS V13.01,2013-03-07 14:21:00,
2013-03-07 07:22:00,38.0,12.1,30.01,NNW,331,4.0,10.0,34,0.00,,---,0.00,VWS V13.01,2013-03-07 14:22:00,
2013-03-07 07:27:00,39.3,12.6,30.02,NNW,331,6.0,10.0,33,0.00,,---,0.00,VWS V13.01,2013-03-07 14:27:00,
2013-03-07 07:28:00,39.6,12.9,30.00,NNW,331,5.0,10.0,33,0.00,,---,0.00,VWS V13.01,2013-03-07 14:28:00,
2013-03-07 07:29:00,39.9,12.4,30.01,NNW,331,3.0,10.0,32,0.00,,---,0.00,VWS V13.01,2013-03-07 14:29:00,
2013-03-07 07:33:00,40.5,13.0,30.01,NNW,331,3.0,4.0,32,0.00,,---,0.00,VWS V13.01,2013-03-07 14:33:00,
2013-03-07 07:34:00,40.7,13.1,30.01,NNW,331,3.0,4.0,32,0.00,,---,0.00,VWS V13.01,2013-03-07 14:34:00,
2013-03-07 07:38:00,41.4,13.1,30.01,NNW,331,1.0,6.0,31,0.00,,---,0.00,VWS V13.01,2013-03-07 14:38:00,
2013-03-07 07:39:00,41.5,13.1,30.00,NNW,331,4.0,6.0,31,0.00,,---,0.00,VWS V13.01,2013-03-07 14:39:00,
2013-03-07 07:44:00,42.0,13.6,30.00,NNW,330,3.0,6.0,31,0.00,,---,0.00,VWS V13.01,2013-03-07 14:44:00,
2013-03-07 07:45:00,42.0,13.6,30.00,NNW,330,5.0,5.0,31,0.00,,---,0.00,VWS V13.01,2013-03-07 14:45:00,
2013-03-07 07:50:00,42.4,13.9,30.00,NNW,331,2.0,5.0,31,0.00,,---,0.00,VWS V13.01,2013-03-07 14:50:00,
2013-03-07 07:52:00,42.7,14.2,30.00,NNW,331,3.0,5.0,31,0.00,,---,0.00,VWS V13.01,2013-03-07 14:52:00,
2013-03-07 07:53:00,42.9,13.6,30.00,NNW,331,3.0,5.0,30,0.00,,---,0.00,VWS V13.01,2013-03-07 14:53:00,
2013-03-07 07:58:00,43.9,14.5,29.99,NNW,330,0.0,5.0,30,0.00,,---,0.00,VWS V13.01,2013-03-07 14:58:00,
2013-03-07 08:03:00,45.7,15.3,30.03,NNW,330,1.0,3.0,29,0.00,,---,0.00,VWS V13.01,2013-03-07 15:03:00,
2013-03-07 08:04:00,46.0,15.5,30.03,NNW,331,2.0,4.0,29,0.00,,---,0.00,VWS V13.01,2013-03-07 15:04:00,
2013-03-07 08:06:00,46.6,16.1,30.03,NNW,331,3.0,4.0,29,0.00,,---,0.00,VWS V13.01,2013-03-07 15:06:00,
2013-03-07 08:11:00,47.6,16.1,30.02,NNW,330,3.0,4.0,28,0.00,,---,0.00,VWS V13.01,2013-03-07 15:11:00,
2013-03-07 08:12:00,47.6,16.1,30.01,NNW,330,0.0,4.0,28,0.00,,---,0.00,VWS V13.01,2013-03-07 15:12:00,
2013-03-07 08:13:00,47.6,16.1,30.01,NNW,330,2.0,4.0,28,0.00,,---,0.00,VWS V13.01,2013-03-07 15:13:00,
2013-03-07 08:18:00,47.6,16.1,30.02,NNW,331,0.0,4.0,28,0.00,,---,0.00,VWS V13.01,2013-03-07 15:18:00,
2013-03-07 08:19:00,47.7,16.2,30.01,NNW,331,1.0,4.0,28,0.00,,---,0.00,VWS V13.01,2013-03-07 15:19:00,
2013-03-07 08:21:00,47.9,16.4,30.02,NNW,331,1.0,4.0,28,0.00,,---,0.00,VWS V13.01,2013-03-07 15:21:00,
2013-03-07 08:27:00,48.8,16.3,30.01,NNW,331,2.0,4.0,27,0.00,,---,0.00,VWS V13.01,2013-03-07 15:27:00,
2013-03-07 08:28:00,49.1,16.6,30.00,NNW,330,0.0,4.0,27,0.00,,---,0.00,VWS V13.01,2013-03-07 15:28:00,
2013-03-07 08:31:00,49.8,17.2,30.01,NNW,331,1.0,2.0,27,0.00,,---,0.00,VWS V13.01,2013-03-07 15:31:00,
2013-03-07 08:37:00,50.7,17.1,30.00,NNW,330,0.0,3.0,26,0.00,,---,0.00,VWS V13.01,2013-03-07 15:37:00,
2013-03-07 08:39:00,51.1,17.4,30.00,NNW,331,3.0,3.0,26,0.00,,---,0.00,VWS V13.01,2013-03-07 15:39:00,
2013-03-07 08:43:00,50.8,17.2,30.00,NNW,331,4.0,4.0,26,0.00,,---,0.00,VWS V13.01,2013-03-07 15:43:00,
2013-03-07 08:44:00,50.4,16.8,30.00,NNW,330,2.0,4.0,26,0.00,,---,0.00,VWS V13.01,2013-03-07 15:44:00,
2013-03-07 08:45:00,50.2,17.5,30.01,NNW,331,2.0,3.0,27,0.00,,---,0.00,VWS V13.01,2013-03-07 15:45:00,
2013-03-07 08:49:00,49.6,17.0,30.01,NNW,330,3.0,4.0,27,0.00,,---,0.00,VWS V13.01,2013-03-07 15:49:00,
2013-03-07 08:50:00,49.5,17.8,30.01,NNW,331,4.0,5.0,28,0.00,,---,0.00,VWS V13.01,2013-03-07 15:50:00,
2013-03-07 08:54:00,49.2,17.5,30.01,NNW,331,4.0,5.0,28,0.00,,---,0.00,VWS V13.01,2013-03-07 15:54:00,
2013-03-07 08:55:00,49.2,17.5,30.01,NNW,332,2.0,5.0,28,0.00,,---,0.00,VWS V13.01,2013-03-07 15:55:00,
2013-03-07 08:57:00,49.1,17.4,30.01,NNW,333,4.0,5.0,28,0.00,,---,0.00,VWS V13.01,2013-03-07 15:57:00,
2013-03-07 09:01:00,48.7,17.1,30.02,NNW,340,3.0,5.0,28,0.00,,---,0.00,VWS V13.01,2013-03-07 16:01:00,
2013-03-07 09:02:00,48.6,17.8,30.02,NNW,340,3.0,5.0,29,0.00,,---,0.00,VWS V13.01,2013-03-07 16:02:00,
2013-03-07 09:04:00,48.5,17.7,30.02,NNW,340,2.0,5.0,29,0.00,,---,0.00,VWS V13.01,2013-03-07 16:04:00,
2013-03-07 09:07:00,48.8,18.0,30.02,NNW,340,0.0,5.0,29,0.00,,---,0.00,VWS V13.01,2013-03-07 16:07:00,
2013-03-07 09:10:00,49.5,18.6,30.02,NNW,340,2.0,5.0,29,0.00,,---,0.00,VWS V13.01,2013-03-07 16:10:00,
2013-03-07 09:13:00,50.1,18.3,30.01,NNW,340,2.0,5.0,28,0.00,,---,0.00,VWS V13.01,2013-03-07 16:13:00,
2013-03-07 09:14:00,50.2,18.4,30.01,NNW,340,1.0,5.0,28,0.00,,---,0.00,VWS V13.01,2013-03-07 16:14:00,
2013-03-07 09:16:00,50.2,18.4,30.01,NNW,343,3.0,4.0,28,0.00,,---,0.00,VWS V13.01,2013-03-07 16:16:00,
2013-03-07 09:19:00,50.3,18.5,30.00,NNW,343,2.0,5.0,28,0.00,,---,0.00,VWS V13.01,2013-03-07 16:19:00,
2013-03-07 09:24:00,50.8,18.9,30.00,NNW,343,0.0,5.0,28,0.00,,---,0.00,VWS V13.01,2013-03-07 16:24:00,
2013-03-07 09:28:00,51.7,18.8,29.99,NNW,342,2.0,5.0,27,0.00,,---,0.00,VWS V13.01,2013-03-07 16:28:00,
2013-03-07 09:29:00,51.9,19.0,29.99,NNW,342,2.0,5.0,27,0.00,,---,0.00,VWS V13.01,2013-03-07 16:29:00,
2013-03-07 09:34:00,52.5,19.5,29.99,NNW,345,4.0,4.0,27,0.00,,---,0.00,VWS V13.01,2013-03-07 16:34:00,
2013-03-07 09:36:00,52.5,19.5,29.99,North,360,5.0,5.0,27,0.00,,---,0.00,VWS V13.01,2013-03-07 16:36:00,
2013-03-07 09:40:00,52.5,19.5,29.99,North,360,2.0,5.0,27,0.00,,---,0.00,VWS V13.01,2013-03-07 16:40:00,
2013-03-07 09:42:00,52.6,19.6,29.99,North,360,2.0,5.0,27,0.00,,---,0.00,VWS V13.01,2013-03-07 16:42:00,
2013-03-07 09:44:00,53.0,19.9,29.99,North,360,2.0,5.0,27,0.00,,---,0.00,VWS V13.01,2013-03-07 16:44:00,
2013-03-07 09:47:00,53.5,19.5,29.99,North,360,0.0,2.0,26,0.00,,---,0.00,VWS V13.01,2013-03-07 16:47:00,
2013-03-07 09:50:00,54.3,20.2,29.98,North,360,1.0,4.0,26,0.00,,---,0.00,VWS V13.01,2013-03-07 16:50:00,
2013-03-07 09:52:00,54.4,20.2,29.98,North,360,4.0,5.0,26,0.00,,---,0.00,VWS V13.01,2013-03-07 16:52:00,
2013-03-07 09:54:00,54.5,20.3,29.97,North,360,2.0,5.0,26,0.00,,---,0.00,VWS V13.01,2013-03-07 16:54:00,
2013-03-07 09:59:00,54.8,20.6,29.97,North,5,3.0,5.0,26,0.00,,---,0.00,VWS V13.01,2013-03-07 16:59:00,
2013-03-07 10:02:00,54.9,20.7,29.96,North,5,3.0,4.0,26,0.00,,---,0.00,VWS V13.01,2013-03-07 17:02:00,
2013-03-07 10:05:00,54.7,20.5,29.96,North,360,3.0,6.0,26,0.00,,---,0.00,VWS V13.01,2013-03-07 17:05:00,
2013-03-07 10:10:00,55.2,20.9,29.96,North,5,0.0,6.0,26,0.00,,---,0.00,VWS V13.01,2013-03-07 17:10:00,
2013-03-07 10:13:00,55.5,21.2,29.96,North,5,3.0,6.0,26,0.00,,---,0.00,VWS V13.01,2013-03-07 17:13:00,
2013-03-07 10:14:00,55.8,21.5,29.96,North,5,4.0,6.0,26,0.00,,---,0.00,VWS V13.01,2013-03-07 17:14:00,
2013-03-07 10:15:00,55.9,20.6,29.96,North,360,3.0,4.0,25,0.00,,---,0.00,VWS V13.01,2013-03-07 17:15:00,
2013-03-07 10:19:00,56.4,21.0,29.96,North,5,0.0,4.0,25,0.00,,---,0.00,VWS V13.01,2013-03-07 17:19:00,
2013-03-07 10:21:00,56.9,21.5,29.95,North,360,3.0,4.0,25,0.00,,---,0.00,VWS V13.01,2013-03-07 17:21:00,
2013-03-07 10:24:00,57.4,20.9,29.95,North,5,1.0,4.0,24,0.00,,---,0.00,VWS V13.01,2013-03-07 17:24:00,
2013-03-07 10:27:00,57.5,21.0,29.95,ESE,107,7.0,10.0,24,0.00,,---,0.00,VWS V13.01,2013-03-07 17:27:00,
2013-03-07 10:30:00,57.1,20.7,29.95,ESE,107,3.0,3.0,24,0.00,,---,0.00,VWS V13.01,2013-03-07 17:30:00,
2013-03-07 10:33:00,57.0,21.5,29.95,ESE,106,3.0,4.0,25,0.00,,---,0.00,VWS V13.01,2013-03-07 17:33:00,
2013-03-07 10:35:00,57.2,20.8,29.95,ESE,106,2.0,4.0,24,0.00,,---,0.00,VWS V13.01,2013-03-07 17:35:00,
2013-03-07 10:38:00,57.5,21.0,29.95,ESE,107,4.0,4.0,24,0.00,,---,0.00,VWS V13.01,2013-03-07 17:38:00,
2013-03-07 10:40:00,57.7,20.2,29.95,ESE,107,3.0,4.0,23,0.00,,---,0.00,VWS V13.01,2013-03-07 17:40:00,
2013-03-07 10:42:00,57.8,21.3,29.95,ESE,107,3.0,5.0,24,0.00,,---,0.00,VWS V13.01,2013-03-07 17:42:00,
2013-03-07 10:45:00,57.9,20.4,29.95,ESE,107,4.0,6.0,23,0.00,,---,0.00,VWS V13.01,2013-03-07 17:45:00,
2013-03-07 10:48:00,57.8,19.2,29.95,ESE,106,4.0,6.0,22,0.00,,---,0.00,VWS V13.01,2013-03-07 17:48:00,
2013-03-07 10:53:00,58.6,19.9,29.93,ESE,106,6.0,6.0,22,0.00,,---,0.00,VWS V13.01,2013-03-07 17:53:00,
2013-03-07 10:54:00,58.7,21.0,29.93,ESE,107,2.0,6.0,23,0.00,,---,0.00,VWS V13.01,2013-03-07 17:54:00,
2013-03-07 10:58:00,59.0,21.3,29.93,ESE,107,2.0,6.0,23,0.00,,---,0.00,VWS V13.01,2013-03-07 17:58:00,
2013-03-07 11:03:00,59.4,21.6,29.95,ESE,107,2.0,6.0,23,0.00,,---,0.00,VWS V13.01,2013-03-07 18:03:00,
2013-03-07 11:06:00,59.9,21.0,29.95,ESE,107,4.0,6.0,22,0.00,,---,0.00,VWS V13.01,2013-03-07 18:06:00,
2013-03-07 11:08:00,59.9,21.0,29.95,ESE,107,3.0,7.0,22,0.00,,---,0.00,VWS V13.01,2013-03-07 18:08:00,
2013-03-07 11:13:00,60.1,22.2,29.95,ESE,107,4.0,7.0,23,0.00,,---,0.00,VWS V13.01,2013-03-07 18:13:00,
2013-03-07 11:14:00,60.3,22.4,29.95,ESE,107,5.0,7.0,23,0.00,,---,0.00,VWS V13.01,2013-03-07 18:14:00,
2013-03-07 11:19:00,60.6,22.6,29.94,ESE,112,4.0,10.0,23,0.00,,---,0.00,VWS V13.01,2013-03-07 18:19:00,
2013-03-07 11:20:00,60.4,23.5,29.95,ESE,112,4.0,10.0,24,0.00,,---,0.00,VWS V13.01,2013-03-07 18:20:00,
2013-03-07 11:23:00,60.3,23.4,29.95,ESE,112,5.0,10.0,24,0.00,,---,0.00,VWS V13.01,2013-03-07 18:23:00,
2013-03-07 11:27:00,60.2,23.3,29.94,ESE,114,5.0,10.0,24,0.00,,---,0.00,VWS V13.01,2013-03-07 18:27:00,
2013-03-07 11:28:00,60.1,24.2,29.94,ESE,114,4.0,10.0,25,0.00,,---,0.00,VWS V13.01,2013-03-07 18:28:00,
2013-03-07 11:29:00,60.0,23.1,29.94,ESE,114,0.0,10.0,24,0.00,,---,0.00,VWS V13.01,2013-03-07 18:29:00,
2013-03-07 11:33:00,61.0,25.0,29.93,SE,134,6.0,9.0,25,0.00,,---,0.00,VWS V13.01,2013-03-07 18:33:00,
2013-03-07 11:34:00,61.3,25.2,29.93,SE,139,6.0,10.0,25,0.00,,---,0.00,VWS V13.01,2013-03-07 18:34:00,
2013-03-07 11:35:00,61.4,24.3,29.93,SE,138,2.0,10.0,24,0.00,,---,0.00,VWS V13.01,2013-03-07 18:35:00,
2013-03-07 11:39:00,61.5,24.4,29.93,SE,139,3.0,10.0,24,0.00,,---,0.00,VWS V13.01,2013-03-07 18:39:00,
2013-03-07 11:41:00,61.5,23.4,29.93,ESE,122,5.0,11.0,23,0.00,,---,0.00,VWS V13.01,2013-03-07 18:41:00,
2013-03-07 11:45:00,61.4,23.3,29.93,SE,126,7.0,7.0,23,0.00,,---,0.00,VWS V13.01,2013-03-07 18:45:00,
2013-03-07 11:48:00,61.5,22.3,29.92,SE,127,7.0,9.0,22,0.00,,---,0.00,VWS V13.01,2013-03-07 18:48:00,
2013-03-07 11:49:00,61.7,22.5,29.92,SE,128,3.0,9.0,22,0.00,,---,0.00,VWS V13.01,2013-03-07 18:49:00,
2013-03-07 11:53:00,62.6,23.2,29.91,SE,128,3.0,9.0,22,0.00,,---,0.00,VWS V13.01,2013-03-07 18:53:00,
2013-03-07 11:54:00,62.5,22.1,29.91,SE,132,0.0,9.0,21,0.00,,---,0.00,VWS V13.01,2013-03-07 18:54:00,
2013-03-07 11:57:00,62.5,23.2,29.91,SE,136,1.0,10.0,22,0.00,,---,0.00,VWS V13.01,2013-03-07 18:57:00,
2013-03-07 12:02:00,62.7,23.3,29.92,SE,140,2.0,7.0,22,0.00,,---,0.00,VWS V13.01,2013-03-07 19:02:00,
2013-03-07 12:03:00,62.7,23.3,29.92,ESE,123,5.0,11.0,22,0.00,,---,0.00,VWS V13.01,2013-03-07 19:03:00,
2013-03-07 12:06:00,62.4,23.1,29.93,ESE,123,2.0,11.0,22,0.00,,---,0.00,VWS V13.01,2013-03-07 19:06:00,
2013-03-07 12:11:00,62.4,23.1,29.92,SE,142,4.0,12.0,22,0.00,,---,0.00,VWS V13.01,2013-03-07 19:11:00,
2013-03-07 12:13:00,62.4,23.1,29.93,SE,144,2.0,12.0,22,0.00,,---,0.00,VWS V13.01,2013-03-07 19:13:00,
2013-03-07 12:15:00,62.6,23.2,29.91,SSE,151,6.0,12.0,22,0.00,,---,0.00,VWS V13.01,2013-03-07 19:15:00,
2013-03-07 12:18:00,62.9,22.4,29.91,SSE,163,7.0,12.0,21,0.00,,---,0.00,VWS V13.01,2013-03-07 19:18:00,
2013-03-07 12:20:00,63.0,23.6,29.91,SE,146,10.0,12.0,22,0.00,,---,0.00,VWS V13.01,2013-03-07 19:20:00,
2013-03-07 12:22:00,62.9,23.5,29.91,SE,125,4.0,12.0,22,0.00,,---,0.00,VWS V13.01,2013-03-07 19:22:00,
2013-03-07 12:25:00,62.5,23.2,29.90,ESE,113,4.0,12.0,22,0.00,,---,0.00,VWS V13.01,2013-03-07 19:25:00,
2013-03-07 12:29:00,62.3,21.9,29.91,SW,221,9.0,17.0,21,0.00,,---,0.00,VWS V13.01,2013-03-07 19:29:00,
2013-03-07 12:31:00,62.4,22.0,29.91,SSE,157,5.0,10.0,21,0.00,,---,0.00,VWS V13.01,2013-03-07 19:31:00,
2013-03-07 12:34:00,62.7,22.2,29.90,SE,132,3.0,12.0,21,0.00,,---,0.00,VWS V13.01,2013-03-07 19:34:00,
2013-03-07 12:35:00,62.7,22.2,29.90,SE,132,0.0,12.0,21,0.00,,---,0.00,VWS V13.01,2013-03-07 19:35:00,
2013-03-07 12:38:00,62.9,22.4,29.90,SE,132,0.0,12.0,21,0.00,,---,0.00,VWS V13.01,2013-03-07 19:38:00,
2013-03-07 12:39:00,63.0,22.5,29.89,SE,132,0.0,12.0,21,0.00,,---,0.00,VWS V13.01,2013-03-07 19:39:00,
2013-03-07 12:40:00,63.2,22.6,29.89,SE,132,4.0,12.0,21,0.00,,---,0.00,VWS V13.01,2013-03-07 19:40:00,
2013-03-07 12:44:00,63.4,22.8,29.89,SE,141,0.0,12.0,21,0.00,,---,0.00,VWS V13.01,2013-03-07 19:44:00,
2013-03-07 12:46:00,63.5,21.7,29.89,SE,143,0.0,7.0,20,0.00,,---,0.00,VWS V13.01,2013-03-07 19:46:00,
2013-03-07 12:48:00,63.6,21.8,29.89,SE,131,6.0,10.0,20,0.00,,---,0.00,VWS V13.01,2013-03-07 19:48:00,
2013-03-07 12:53:00,63.5,22.9,29.89,SE,133,5.0,11.0,21,0.00,,---,0.00,VWS V13.01,2013-03-07 19:53:00,
2013-03-07 12:54:00,63.4,21.7,29.88,SE,133,0.0,11.0,20,0.00,,---,0.00,VWS V13.01,2013-03-07 19:54:00,
2013-03-07 12:55:00,63.4,21.7,29.88,SE,134,1.0,11.0,20,0.00,,---,0.00,VWS V13.01,2013-03-07 19:55:00,
2013-03-07 12:59:00,63.6,21.8,29.88,SSW,207,4.0,11.0,20,0.00,,---,0.00,VWS V13.01,2013-03-07 19:59:00,
2013-03-07 13:00:00,63.8,22.0,29.88,South,181,3.0,5.0,20,0.00,,---,0.00,VWS V13.01,2013-03-07 20:00:00,
2013-03-07 13:03:00,64.2,22.3,29.88,SSW,198,9.0,10.0,20,0.00,,---,0.00,VWS V13.01,2013-03-07 20:03:00,
2013-03-07 13:05:00,64.1,22.2,29.88,SSE,167,7.0,13.0,20,0.00,,---,0.00,VWS V13.01,2013-03-07 20:05:00,
2013-03-07 13:07:00,64.1,22.2,29.87,SSW,207,9.0,13.0,20,0.00,,---,0.00,VWS V13.01,2013-03-07 20:07:00,
2013-03-07 13:10:00,63.7,21.9,29.87,SSW,208,3.0,13.0,20,0.00,,---,0.00,VWS V13.01,2013-03-07 20:10:00,
2013-03-07 13:11:00,63.8,22.0,29.87,SSW,198,4.0,13.0,20,0.00,,---,0.00,VWS V13.01,2013-03-07 20:11:00,
2013-03-07 13:14:00,64.2,22.3,29.87,SSW,202,6.0,13.0,20,0.00,,---,0.00,VWS V13.01,2013-03-07 20:14:00,
2013-03-07 13:16:00,64.3,22.4,29.87,SSW,211,4.0,11.0,20,0.00,,---,0.00,VWS V13.01,2013-03-07 20:16:00,
2013-03-07 13:19:00,64.6,21.4,29.85,South,188,4.0,11.0,19,0.00,,---,0.00,VWS V13.01,2013-03-07 20:19:00,
2013-03-07 13:22:00,64.8,21.6,29.85,South,188,0.0,11.0,19,0.00,,---,0.00,VWS V13.01,2013-03-07 20:22:00,
2013-03-07 13:24:00,65.0,23.0,29.85,ESE,117,7.0,11.0,20,0.00,,---,0.00,VWS V13.01,2013-03-07 20:24:00,
2013-03-07 13:28:00,64.5,21.4,29.85,ESE,116,1.0,11.0,19,0.00,,---,0.00,VWS V13.01,2013-03-07 20:28:00,
2013-03-07 13:29:00,64.4,21.3,29.85,ESE,115,2.0,11.0,19,0.00,,---,0.00,VWS V13.01,2013-03-07 20:29:00,
2013-03-07 13:34:00,64.3,21.2,29.85,East,80,3.0,7.0,19,0.00,,---,0.00,VWS V13.01,2013-03-07 20:34:00,
2013-03-07 13:36:00,64.2,21.1,29.85,East,79,0.0,7.0,19,0.00,,---,0.00,VWS V13.01,2013-03-07 20:36:00,
2013-03-07 13:38:00,64.7,21.5,29.84,East,94,3.0,7.0,19,0.00,,---,0.00,VWS V13.01,2013-03-07 20:38:00,
2013-03-07 13:40:00,65.1,20.6,29.84,SE,135,7.0,10.0,18,0.00,,---,0.00,VWS V13.01,2013-03-07 20:40:00,
2013-03-07 13:41:00,65.6,21.0,29.83,SW,235,6.0,29.0,18,0.00,,---,0.00,VWS V13.01,2013-03-07 20:41:00,
2013-03-07 13:44:00,66.2,21.5,29.84,South,187,5.0,29.0,18,0.00,,---,0.00,VWS V13.01,2013-03-07 20:44:00,
2013-03-07 13:47:00,66.2,21.5,29.84,South,188,7.0,11.0,18,0.00,,---,0.00,VWS V13.01,2013-03-07 20:47:00,
2013-03-07 13:49:00,66.2,21.5,29.84,South,191,0.0,11.0,18,0.00,,---,0.00,VWS V13.01,2013-03-07 20:49:00,
2013-03-07 13:50:00,66.3,21.6,29.84,SSE,150,4.0,11.0,18,0.00,,---,0.00,VWS V13.01,2013-03-07 20:50:00,
2013-03-07 13:52:00,66.3,21.6,29.84,South,179,1.0,11.0,18,0.00,,---,0.00,VWS V13.01,2013-03-07 20:52:00,
2013-03-07 13:55:00,66.1,21.4,29.83,SSE,148,4.0,11.0,18,0.00,,---,0.00,VWS V13.01,2013-03-07 20:55:00,
2013-03-07 13:57:00,65.8,22.4,29.83,SSE,153,5.0,11.0,19,0.00,,---,0.00,VWS V13.01,2013-03-07 20:57:00,
2013-03-07 14:00:00,65.3,22.0,29.84,SE,145,2.0,3.0,19,0.00,,---,0.00,VWS V13.01,2013-03-07 21:00:00,
2013-03-07 14:03:00,65.4,22.1,29.84,SE,133,12.0,15.0,19,0.00,,---,0.00,VWS V13.01,2013-03-07 21:03:00,
2013-03-07 14:05:00,65.5,20.9,29.84,East,82,3.0,15.0,18,0.00,,---,0.00,VWS V13.01,2013-03-07 21:05:00,
2013-03-07 14:10:00,65.3,22.0,29.84,ESE,121,9.0,15.0,19,0.00,,---,0.00,VWS V13.01,2013-03-07 21:10:00,
2013-03-07 14:12:00,65.8,21.1,29.84,SE,138,10.0,15.0,18,0.00,,---,0.00,VWS V13.01,2013-03-07 21:12:00,
2013-03-07 14:13:00,65.9,21.2,29.84,SE,140,5.0,15.0,18,0.00,,---,0.00,VWS V13.01,2013-03-07 21:13:00,
2013-03-07 14:17:00,66.3,21.6,29.83,SE,140,12.0,13.0,18,0.00,,---,0.00,VWS V13.01,2013-03-07 21:17:00,
2013-03-07 14:18:00,66.1,21.4,29.83,SSE,150,6.0,13.0,18,0.00,,---,0.00,VWS V13.01,2013-03-07 21:18:00,
2013-03-07 14:22:00,66.1,21.4,29.83,SSE,157,4.0,13.0,18,0.00,,---,0.00,VWS V13.01,2013-03-07 21:22:00,
2013-03-07 14:23:00,66.3,21.6,29.83,SSE,165,4.0,13.0,18,0.00,,---,0.00,VWS V13.01,2013-03-07 21:23:00,
2013-03-07 14:24:00,66.3,21.6,29.83,South,175,9.0,14.0,18,0.00,,---,0.00,VWS V13.01,2013-03-07 21:24:00,
2013-03-07 14:28:00,66.0,21.3,29.83,SSW,203,10.0,14.0,18,0.00,,---,0.00,VWS V13.01,2013-03-07 21:28:00,
2013-03-07 14:31:00,66.1,21.4,29.83,SSE,163,6.0,9.0,18,0.00,,---,0.00,VWS V13.01,2013-03-07 21:31:00,
2013-03-07 14:34:00,65.9,21.2,29.83,WSW,251,5.0,12.0,18,0.00,,---,0.00,VWS V13.01,2013-03-07 21:34:00,
2013-03-07 14:36:00,65.9,21.2,29.83,South,172,4.0,12.0,18,0.00,,---,0.00,VWS V13.01,2013-03-07 21:36:00,
2013-03-07 14:37:00,66.0,21.3,29.83,SE,130,4.0,12.0,18,0.00,,---,0.00,VWS V13.01,2013-03-07 21:37:00,
2013-03-07 14:42:00,66.2,21.5,29.83,South,172,2.0,12.0,18,0.00,,---,0.00,VWS V13.01,2013-03-07 21:42:00,
2013-03-07 14:43:00,66.3,21.6,29.83,South,173,0.0,12.0,18,0.00,,---,0.00,VWS V13.01,2013-03-07 21:43:00,
2013-03-07 14:45:00,66.3,21.6,29.82,SE,127,5.0,5.0,18,0.00,,---,0.00,VWS V13.01,2013-03-07 21:45:00,
2013-03-07 14:48:00,66.0,21.3,29.82,ESE,117,6.0,13.0,18,0.00,,---,0.00,VWS V13.01,2013-03-07 21:48:00,
2013-03-07 14:50:00,65.8,21.1,29.82,ESE,122,6.0,13.0,18,0.00,,---,0.00,VWS V13.01,2013-03-07 21:50:00,
2013-03-07 14:55:00,66.7,21.9,29.81,SSE,148,5.0,13.0,18,0.00,,---,0.00,VWS V13.01,2013-03-07 21:55:00,
2013-03-07 14:57:00,66.7,21.9,29.81,SSE,148,0.0,13.0,18,0.00,,---,0.00,VWS V13.01,2013-03-07 21:57:00,
2013-03-07 14:59:00,66.9,22.0,29.81,SSE,148,3.0,13.0,18,0.00,,---,0.00,VWS V13.01,2013-03-07 21:59:00,
2013-03-07 15:02:00,67.1,22.2,29.81,SSW,204,6.0,12.0,18,0.00,,---,0.00,VWS V13.01,2013-03-07 22:02:00,
2013-03-07 15:03:00,67.2,22.3,29.81,South,191,9.0,12.0,18,0.00,,---,0.00,VWS V13.01,2013-03-07 22:03:00,
2013-03-07 15:09:00,67.2,22.3,29.81,South,173,5.0,12.0,18,0.00,,---,0.00,VWS V13.01,2013-03-07 22:09:00,
2013-03-07 15:10:00,67.2,22.3,29.81,SE,139,10.0,12.0,18,0.00,,---,0.00,VWS V13.01,2013-03-07 22:10:00,
2013-03-07 15:12:00,67.5,22.5,29.81,SSE,168,10.0,14.0,18,0.00,,---,0.00,VWS V13.01,2013-03-07 22:12:00,
2013-03-07 15:16:00,67.6,22.6,29.80,SE,137,10.0,11.0,18,0.00,,---,0.00,VWS V13.01,2013-03-07 22:16:00,
2013-03-07 15:17:00,67.7,22.7,29.80,SE,133,4.0,11.0,18,0.00,,---,0.00,VWS V13.01,2013-03-07 22:17:00,
2013-03-07 15:20:00,68.1,23.0,29.81,SE,124,9.0,12.0,18,0.00,,---,0.00,VWS V13.01,2013-03-07 22:20:00,
2013-03-07 15:24:00,67.3,22.4,29.80,SSE,148,4.0,12.0,18,0.00,,---,0.00,VWS V13.01,2013-03-07 22:24:00,
2013-03-07 15:25:00,67.1,22.2,29.80,SSE,152,5.0,12.0,18,0.00,,---,0.00,VWS V13.01,2013-03-07 22:25:00,
2013-03-07 15:31:00,67.4,22.5,29.80,South,186,3.0,6.0,18,0.00,,---,0.00,VWS V13.01,2013-03-07 22:31:00,
2013-03-07 15:33:00,67.6,22.6,29.80,SW,215,10.0,12.0,18,0.00,,---,0.00,VWS V13.01,2013-03-07 22:33:00,
2013-03-07 15:38:00,67.9,22.9,29.80,SW,224,4.0,12.0,18,0.00,,---,0.00,VWS V13.01,2013-03-07 22:38:00,
2013-03-07 15:42:00,67.7,22.7,29.80,SSW,212,1.0,12.0,18,0.00,,---,0.00,VWS V13.01,2013-03-07 22:42:00,
2013-03-07 15:44:00,67.7,22.7,29.80,SSW,212,1.0,12.0,18,0.00,,---,0.00,VWS V13.01,2013-03-07 22:44:00,
2013-03-07 15:48:00,67.6,22.6,29.80,ESE,121,4.0,8.0,18,0.00,,---,0.00,VWS V13.01,2013-03-07 22:48:00,
2013-03-07 15:50:00,67.4,23.7,29.79,SE,138,7.0,15.0,19,0.00,,---,0.00,VWS V13.01,2013-03-07 22:50:00,
2013-03-07 15:51:00,67.3,22.4,29.80,SE,137,4.0,15.0,18,0.00,,---,0.00,VWS V13.01,2013-03-07 22:51:00,
2013-03-07 15:57:00,67.5,22.5,29.80,SSE,150,1.0,15.0,18,0.00,,---,0.00,VWS V13.01,2013-03-07 22:57:00,
2013-03-07 15:58:00,67.7,22.7,29.79,SSE,150,3.0,15.0,18,0.00,,---,0.00,VWS V13.01,2013-03-07 22:58:00,
2013-03-07 15:59:00,67.8,22.8,29.79,SSE,156,6.0,15.0,18,0.00,,---,0.00,VWS V13.01,2013-03-07 22:59:00,
2013-03-07 16:03:00,67.7,22.7,29.81,SE,134,7.0,10.0,18,0.00,,---,0.00,VWS V13.01,2013-03-07 23:03:00,
2013-03-07 16:04:00,67.5,22.5,29.81,SE,130,7.0,10.0,18,0.00,,---,0.00,VWS V13.01,2013-03-07 23:04:00,
2013-03-07 16:09:00,67.4,22.5,29.81,South,182,5.0,12.0,18,0.00,,---,0.00,VWS V13.01,2013-03-07 23:09:00,
2013-03-07 16:10:00,67.5,22.5,29.81,South,182,3.0,12.0,18,0.00,,---,0.00,VWS V13.01,2013-03-07 23:10:00,
2013-03-07 16:14:00,67.7,22.7,29.81,SE,145,8.0,13.0,18,0.00,,---,0.00,VWS V13.01,2013-03-07 23:14:00,
2013-03-07 16:19:00,67.6,22.6,29.81,South,176,5.0,12.0,18,0.00,,---,0.00,VWS V13.01,2013-03-07 23:19:00,
2013-03-07 16:21:00,67.8,22.8,29.81,South,176,1.0,12.0,18,0.00,,---,0.00,VWS V13.01,2013-03-07 23:21:00,
2013-03-07 16:23:00,67.9,22.9,29.81,South,177,4.0,12.0,18,0.00,,---,0.00,VWS V13.01,2013-03-07 23:23:00,
2013-03-07 16:24:00,67.9,22.9,29.81,South,180,7.0,12.0,18,0.00,,---,0.00,VWS V13.01,2013-03-07 23:24:00,
2013-03-07 16:28:00,67.5,22.5,29.81,SW,217,6.0,12.0,18,0.00,,---,0.00,VWS V13.01,2013-03-07 23:28:00,
2013-03-07 16:29:00,67.4,22.5,29.81,South,189,4.0,12.0,18,0.00,,---,0.00,VWS V13.01,2013-03-07 23:29:00,
2013-03-07 16:32:00,67.0,22.1,29.81,South,175,4.0,12.0,18,0.00,,---,0.00,VWS V13.01,2013-03-07 23:32:00,
2013-03-07 16:36:00,66.5,23.0,29.80,ESE,114,4.0,12.0,19,0.00,,---,0.00,VWS V13.01,2013-03-07 23:36:00,
2013-03-07 16:38:00,66.2,22.8,29.82,ESE,114,0.0,12.0,19,0.00,,---,0.00,VWS V13.01,2013-03-07 23:38:00,
2013-03-07 16:40:00,66.2,22.8,29.82,ESE,114,3.0,12.0,19,0.00,,---,0.00,VWS V13.01,2013-03-07 23:40:00,
2013-03-07 16:43:00,66.3,22.8,29.82,SE,142,3.0,12.0,19,0.00,,---,0.00,VWS V13.01,2013-03-07 23:43:00,
2013-03-07 16:44:00,66.3,22.8,29.82,SSE,151,2.0,12.0,19,0.00,,---,0.00,VWS V13.01,2013-03-07 23:44:00,
2013-03-07 16:48:00,66.1,22.7,29.82,SE,140,6.0,7.0,19,0.00,,---,0.00,VWS V13.01,2013-03-07 23:48:00,
2013-03-07 16:52:00,65.9,22.5,29.82,SSW,201,6.0,7.0,19,0.00,,---,0.00,VWS V13.01,2013-03-07 23:52:00,
2013-03-07 16:54:00,65.8,22.4,29.82,SSW,200,2.0,9.0,19,0.00,,---,0.00,VWS V13.01,2013-03-07 23:54:00,
2013-03-07 16:58:00,66.1,22.7,29.81,SW,217,3.0,9.0,19,0.00,,---,0.00,VWS V13.01,2013-03-07 23:58:00,
2013-03-07 16:59:00,66.1,22.7,29.80,SW,217,3.0,3.0,19,0.00,,---,0.00,VWS V13.01,2013-03-07 23:59:00,
2013-03-07 17:02:00,66.4,22.9,29.79,SW,217,0.0,3.0,19,0.00,,---,0.00,VWS V13.01,2013-03-08 00:02:00,
2013-03-07 17:05:00,66.6,23.1,29.79,SW,217,0.0,4.0,19,0.00,,---,0.00,VWS V13.01,2013-03-08 00:05:00,
2013-03-07 17:08:00,66.5,23.0,29.79,SW,217,0.0,4.0,19,0.00,,---,0.00,VWS V13.01,2013-03-08 00:08:00,
2013-03-07 17:11:00,66.3,24.1,29.79,SSW,209,2.0,5.0,20,0.00,,---,0.00,VWS V13.01,2013-03-08 00:11:00,
2013-03-07 17:14:00,66.0,23.8,29.79,South,182,1.0,7.0,20,0.00,,---,0.00,VWS V13.01,2013-03-08 00:14:00,
2013-03-07 17:18:00,65.9,23.7,29.79,South,182,0.0,1.0,20,0.00,,---,0.00,VWS V13.01,2013-03-08 00:18:00,
2013-03-07 17:19:00,65.9,23.7,29.79,South,182,0.0,1.0,20,0.00,,---,0.00,VWS V13.01,2013-03-08 00:19:00,
2013-03-07 17:20:00,65.9,23.7,29.79,South,182,1.0,3.0,20,0.00,,---,0.00,VWS V13.01,2013-03-08 00:20:00,
2013-03-07 17:25:00,65.6,23.5,29.79,South,182,0.0,4.0,20,0.00,,---,0.00,VWS V13.01,2013-03-08 00:25:00,
2013-03-07 17:26:00,65.6,23.5,29.79,South,182,0.0,4.0,20,0.00,,---,0.00,VWS V13.01,2013-03-08 00:26:00,
2013-03-07 17:29:00,65.6,23.5,29.79,South,182,0.0,0.0,20,0.00,,---,0.00,VWS V13.01,2013-03-08 00:29:00,
2013-03-07 17:35:00,65.5,23.4,29.79,South,182,0.0,0.0,20,0.00,,---,0.00,VWS V13.01,2013-03-08 00:35:00,
2013-03-07 17:36:00,65.5,23.4,29.79,South,182,0.0,0.0,20,0.00,,---,0.00,VWS V13.01,2013-03-08 00:36:00,
2013-03-07 17:37:00,65.5,23.4,29.79,South,182,0.0,0.0,20,0.00,,---,0.00,VWS V13.01,2013-03-08 00:37:00,
2013-03-07 17:41:00,65.5,23.4,29.79,South,182,0.0,0.0,20,0.00,,---,0.00,VWS V13.01,2013-03-08 00:41:00,
2013-03-07 17:42:00,65.5,23.4,29.79,South,182,0.0,0.0,20,0.00,,---,0.00,VWS V13.01,2013-03-08 00:42:00,
2013-03-07 17:44:00,65.6,23.5,29.79,South,182,0.0,0.0,20,0.00,,---,0.00,VWS V13.01,2013-03-08 00:44:00,
2013-03-07 17:50:00,65.6,23.5,29.78,South,182,0.0,3.0,20,0.00,,---,0.00,VWS V13.01,2013-03-08 00:50:00,
2013-03-07 17:51:00,65.6,23.5,29.78,South,182,0.0,3.0,20,0.00,,---,0.00,VWS V13.01,2013-03-08 00:51:00,
2013-03-07 17:52:00,65.7,23.6,29.78,South,182,0.0,3.0,20,0.00,,---,0.00,VWS V13.01,2013-03-08 00:52:00,
2013-03-07 17:57:00,65.6,23.5,29.78,South,182,0.0,3.0,20,0.00,,---,0.00,VWS V13.01,2013-03-08 00:57:00,
2013-03-07 17:59:00,65.4,23.3,29.78,South,182,0.0,3.0,20,0.00,,---,0.00,VWS V13.01,2013-03-08 00:59:00,
2013-03-07 18:02:00,65.3,23.2,29.83,South,182,1.0,1.0,20,0.00,,---,0.00,VWS V13.01,2013-03-08 01:02:00,
2013-03-07 18:05:00,65.1,23.1,29.83,South,182,1.0,2.0,20,0.00,,---,0.00,VWS V13.01,2013-03-08 01:05:00,
2013-03-07 18:07:00,65.0,23.0,29.83,South,182,2.0,3.0,20,0.00,,---,0.00,VWS V13.01,2013-03-08 01:07:00,
2013-03-07 18:10:00,64.7,22.7,29.82,South,182,0.0,3.0,20,0.00,,---,0.00,VWS V13.01,2013-03-08 01:10:00,
2013-03-07 18:11:00,64.7,22.7,29.83,South,182,0.0,3.0,20,0.00,,---,0.00,VWS V13.01,2013-03-08 01:11:00,
2013-03-07 18:12:00,64.6,22.6,29.82,South,182,2.0,3.0,20,0.00,,---,0.00,VWS V13.01,2013-03-08 01:12:00,
2013-03-07 18:15:00,64.4,22.5,29.82,South,182,1.0,2.0,20,0.00,,---,0.00,VWS V13.01,2013-03-08 01:15:00,
2013-03-07 18:17:00,64.2,23.5,29.82,South,182,2.0,3.0,21,0.00,,---,0.00,VWS V13.01,2013-03-08 01:17:00,
2013-03-07 18:18:00,64.1,23.4,29.83,South,182,2.0,3.0,21,0.00,,---,0.00,VWS V13.01,2013-03-08 01:18:00,
2013-03-07 18:22:00,63.7,23.1,29.82,South,178,2.0,4.0,21,0.00,,---,0.00,VWS V13.01,2013-03-08 01:22:00,
2013-03-07 18:24:00,63.5,22.9,29.83,South,178,2.0,4.0,21,0.00,,---,0.00,VWS V13.01,2013-03-08 01:24:00,
2013-03-07 18:27:00,63.3,22.7,29.84,South,173,0.0,4.0,21,0.00,,---,0.00,VWS V13.01,2013-03-08 01:27:00,
2013-03-07 18:28:00,63.2,22.6,29.84,South,173,1.0,4.0,21,0.00,,---,0.00,VWS V13.01,2013-03-08 01:28:00,
2013-03-07 18:33:00,62.8,22.3,29.84,South,172,1.0,2.0,21,0.00,,---,0.00,VWS V13.01,2013-03-08 01:33:00,
2013-03-07 18:34:00,62.7,22.2,29.84,South,173,1.0,2.0,21,0.00,,---,0.00,VWS V13.01,2013-03-08 01:34:00,
2013-03-07 18:35:00,62.6,22.1,29.84,South,173,1.0,2.0,21,0.00,,---,0.00,VWS V13.01,2013-03-08 01:35:00,
2013-03-07 18:40:00,62.2,21.8,29.84,South,172,0.0,2.0,21,0.00,,---,0.00,VWS V13.01,2013-03-08 01:40:00,
2013-03-07 18:41:00,62.1,21.7,29.84,South,172,0.0,2.0,21,0.00,,---,0.00,VWS V13.01,2013-03-08 01:41:00,
2013-03-07 18:44:00,61.9,21.6,29.84,South,172,0.0,2.0,21,0.00,,---,0.00,VWS V13.01,2013-03-08 01:44:00,
2013-03-07 18:45:00,61.9,21.6,29.84,South,173,0.0,0.0,21,0.00,,---,0.00,VWS V13.01,2013-03-08 01:45:00,
2013-03-07 18:49:00,61.8,21.5,29.84,South,173,0.0,0.0,21,0.00,,---,0.00,VWS V13.01,2013-03-08 01:49:00,
2013-03-07 18:50:00,61.8,21.5,29.84,South,172,0.0,0.0,21,0.00,,---,0.00,VWS V13.01,2013-03-08 01:50:00,
2013-03-07 18:51:00,61.8,21.5,29.84,South,172,0.0,0.0,21,0.00,,---,0.00,VWS V13.01,2013-03-08 01:51:00,
2013-03-07 18:57:00,61.7,22.5,29.84,South,173,0.0,0.0,22,0.00,,---,0.00,VWS V13.01,2013-03-08 01:57:00,
2013-03-07 18:58:00,61.7,22.5,29.84,South,173,0.0,0.0,22,0.00,,---,0.00,VWS V13.01,2013-03-08 01:58:00,
2013-03-07 19:03:00,61.6,22.4,29.79,South,172,0.0,0.0,22,0.00,,---,0.00,VWS V13.01,2013-03-08 02:03:00,
2013-03-07 19:04:00,61.5,22.3,29.79,South,172,0.0,0.0,22,0.00,,---,0.00,VWS V13.01,2013-03-08 02:04:00,
2013-03-07 19:05:00,61.5,22.3,29.79,South,172,0.0,0.0,22,0.00,,---,0.00,VWS V13.01,2013-03-08 02:05:00,
2013-03-07 19:10:00,61.3,22.2,29.81,South,173,0.0,0.0,22,0.00,,---,0.00,VWS V13.01,2013-03-08 02:10:00,
2013-03-07 19:11:00,61.3,22.2,29.81,South,173,0.0,0.0,22,0.00,,---,0.00,VWS V13.01,2013-03-08 02:11:00,
2013-03-07 19:12:00,61.3,22.2,29.81,South,173,0.0,0.0,22,0.00,,---,0.00,VWS V13.01,2013-03-08 02:12:00,
2013-03-07 19:16:00,61.2,22.1,29.80,South,173,0.0,0.0,22,0.00,,---,0.00,VWS V13.01,2013-03-08 02:16:00,
2013-03-07 19:17:00,61.2,22.1,29.80,South,173,0.0,0.0,22,0.00,,---,0.00,VWS V13.01,2013-03-08 02:17:00,
2013-03-07 19:18:00,61.2,22.1,29.81,ESE,121,4.0,6.0,22,0.00,,---,0.00,VWS V13.01,2013-03-08 02:18:00,
2013-03-07 19:21:00,62.2,22.9,29.79,SE,129,2.0,10.0,22,0.00,,---,0.00,VWS V13.01,2013-03-08 02:21:00,
2013-03-07 19:23:00,62.6,23.2,29.79,SE,129,1.0,10.0,22,0.00,,---,0.00,VWS V13.01,2013-03-08 02:23:00,
2013-03-07 19:26:00,63.1,22.6,29.79,ENE,75,5.0,10.0,21,0.00,,---,0.00,VWS V13.01,2013-03-08 02:26:00,
2013-03-07 19:27:00,63.3,22.7,29.79,East,101,4.0,10.0,21,0.00,,---,0.00,VWS V13.01,2013-03-08 02:27:00,
2013-03-07 19:28:00,63.5,22.9,29.79,ESE,111,2.0,10.0,21,0.00,,---,0.00,VWS V13.01,2013-03-08 02:28:00,
2013-03-07 19:32:00,63.8,23.1,29.78,ESE,109,2.0,7.0,21,0.00,,---,0.00,VWS V13.01,2013-03-08 02:32:00,
2013-03-07 19:33:00,63.8,23.1,29.78,ESE,118,6.0,7.0,21,0.00,,---,0.00,VWS V13.01,2013-03-08 02:33:00,
2013-03-07 19:34:00,63.6,23.0,29.78,ESE,118,3.0,7.0,21,0.00,,---,0.00,VWS V13.01,2013-03-08 02:34:00,
2013-03-07 19:39:00,62.6,22.1,29.80,SE,128,3.0,9.0,21,0.00,,---,0.00,VWS V13.01,2013-03-08 02:39:00,
2013-03-07 19:40:00,62.5,22.1,29.80,SE,128,1.0,9.0,21,0.00,,---,0.00,VWS V13.01,2013-03-08 02:40:00,
2013-03-07 19:44:00,62.3,21.9,29.80,SE,130,2.0,10.0,21,0.00,,---,0.00,VWS V13.01,2013-03-08 02:44:00,
2013-03-07 19:47:00,62.3,21.9,29.80,SE,130,1.0,5.0,21,0.00,,---,0.00,VWS V13.01,2013-03-08 02:47:00,
2013-03-07 19:49:00,62.2,21.8,29.80,SE,130,0.0,5.0,21,0.00,,---,0.00,VWS V13.01,2013-03-08 02:49:00,
2013-03-07 19:50:00,62.2,21.8,29.80,SE,130,1.0,5.0,21,0.00,,---,0.00,VWS V13.01,2013-03-08 02:50:00,
2013-03-07 19:56:00,62.3,21.9,29.80,SSE,165,1.0,10.0,21,0.00,,---,0.00,VWS V13.01,2013-03-08 02:56:00,
2013-03-07 19:58:00,62.3,21.9,29.80,SSE,165,2.0,10.0,21,0.00,,---,0.00,VWS V13.01,2013-03-08 02:58:00,
2013-03-07 19:59:00,62.3,20.8,29.78,SSE,165,2.0,10.0,20,0.00,,---,0.00,VWS V13.01,2013-03-08 02:59:00,
2013-03-07 20:05:00,62.2,20.7,29.78,SSE,165,4.0,4.0,20,0.00,,---,0.00,VWS V13.01,2013-03-08 03:05:00,
2013-03-07 20:08:00,62.0,20.5,29.78,SSE,153,4.0,7.0,20,0.00,,---,0.00,VWS V13.01,2013-03-08 03:08:00,
2013-03-07 20:10:00,62.0,20.5,29.78,SSE,160,6.0,7.0,20,0.00,,---,0.00,VWS V13.01,2013-03-08 03:10:00,
2013-03-07 20:11:00,61.9,20.4,29.78,SSE,159,3.0,7.0,20,0.00,,---,0.00,VWS V13.01,2013-03-08 03:11:00,
2013-03-07 20:13:00,61.9,20.4,29.78,SSE,159,2.0,7.0,20,0.00,,---,0.00,VWS V13.01,2013-03-08 03:13:00,
2013-03-07 20:15:00,61.8,20.3,29.78,SSE,159,4.0,6.0,20,0.00,,---,0.00,VWS V13.01,2013-03-08 03:15:00,
2013-03-07 20:17:00,61.8,20.3,29.78,SSE,152,5.0,9.0,20,0.00,,---,0.00,VWS V13.01,2013-03-08 03:17:00,
2013-03-07 20:20:00,61.7,20.2,29.78,SSE,166,2.0,12.0,20,0.00,,---,0.00,VWS V13.01,2013-03-08 03:20:00,
2013-03-07 20:21:00,61.6,20.2,29.78,SSE,165,3.0,12.0,20,0.00,,---,0.00,VWS V13.01,2013-03-08 03:21:00,
2013-03-07 20:24:00,61.4,20.0,29.78,SSE,165,3.0,12.0,20,0.00,,---,0.00,VWS V13.01,2013-03-08 03:24:00,
2013-03-07 20:26:00,61.3,19.9,29.78,SSE,165,4.0,12.0,20,0.00,,---,0.00,VWS V13.01,2013-03-08 03:26:00,
2013-03-07 20:29:00,61.1,20.9,29.78,SSE,165,2.0,12.0,21,0.00,,---,0.00,VWS V13.01,2013-03-08 03:29:00,
2013-03-07 20:35:00,60.7,20.6,29.78,SSE,163,3.0,10.0,21,0.00,,---,0.00,VWS V13.01,2013-03-08 03:35:00,
2013-03-07 20:37:00,60.5,20.4,29.78,SE,133,2.0,10.0,21,0.00,,---,0.00,VWS V13.01,2013-03-08 03:37:00,
2013-03-07 20:40:00,60.4,20.3,29.78,SSE,153,5.0,13.0,21,0.00,,---,0.00,VWS V13.01,2013-03-08 03:40:00,
2013-03-07 20:41:00,60.4,20.3,29.79,South,171,4.0,13.0,21,0.00,,---,0.00,VWS V13.01,2013-03-08 03:41:00,
2013-03-07 20:44:00,60.1,20.1,29.79,SE,131,7.0,13.0,21,0.00,,---,0.00,VWS V13.01,2013-03-08 03:44:00,
2013-03-07 20:46:00,60.0,20.0,29.78,SE,144,9.0,12.0,21,0.00,,---,0.00,VWS V13.01,2013-03-08 03:46:00,
2013-03-07 20:48:00,59.9,19.9,29.79,SE,146,4.0,12.0,21,0.00,,---,0.00,VWS V13.01,2013-03-08 03:48:00,
2013-03-07 20:50:00,59.7,19.7,29.79,SE,144,6.0,12.0,21,0.00,,---,0.00,VWS V13.01,2013-03-08 03:50:00,
2013-03-07 20:53:00,59.6,19.6,29.79,South,182,5.0,12.0,21,0.00,,---,0.00,VWS V13.01,2013-03-08 03:53:00,
2013-03-07 20:55:00,59.5,20.6,29.79,SSE,148,3.0,12.0,22,0.00,,---,0.00,VWS V13.01,2013-03-08 03:55:00,
2013-03-07 21:00:00,59.0,20.2,29.79,South,176,5.0,5.0,22,0.00,,---,0.00,VWS V13.01,2013-03-08 04:00:00,
2013-03-07 21:01:00,59.0,20.2,29.76,South,175,10.0,10.0,22,0.00,,---,0.00,VWS V13.01,2013-03-08 04:01:00,
2013-03-07 21:04:00,59.0,20.2,29.76,SSE,158,8.0,11.0,22,0.00,,---,0.00,VWS V13.01,2013-03-08 04:04:00,
2013-03-07 21:06:00,59.0,20.2,29.76,South,182,7.0,11.0,22,0.00,,---,0.00,VWS V13.01,2013-03-08 04:06:00,
2013-03-07 21:07:00,59.0,20.2,29.76,South,179,4.0,11.0,22,0.00,,---,0.00,VWS V13.01,2013-03-08 04:07:00,
2013-03-07 21:09:00,59.0,20.2,29.76,SE,141,6.0,12.0,22,0.00,,---,0.00,VWS V13.01,2013-03-08 04:09:00,
2013-03-07 21:12:00,58.9,20.1,29.76,South,182,4.0,12.0,22,0.00,,---,0.00,VWS V13.01,2013-03-08 04:12:00,
2013-03-07 21:14:00,58.7,20.0,29.76,SSE,161,4.0,12.0,22,0.00,,---,0.00,VWS V13.01,2013-03-08 04:14:00,
2013-03-07 21:20:00,58.3,20.7,29.77,South,176,4.0,11.0,23,0.00,,---,0.00,VWS V13.01,2013-03-08 04:20:00,
2013-03-07 21:25:00,57.9,20.4,29.77,South,191,3.0,11.0,23,0.00,,---,0.00,VWS V13.01,2013-03-08 04:25:00,
2013-03-07 21:26:00,57.8,20.3,29.78,SSW,199,4.0,11.0,23,0.00,,---,0.00,VWS V13.01,2013-03-08 04:26:00,
2013-03-07 21:27:00,57.7,20.2,29.78,South,185,6.0,11.0,23,0.00,,---,0.00,VWS V13.01,2013-03-08 04:27:00,
2013-03-07 21:32:00,57.3,19.8,29.77,SSW,196,6.0,11.0,23,0.00,,---,0.00,VWS V13.01,2013-03-08 04:32:00,
2013-03-07 21:37:00,57.0,20.6,29.77,South,173,3.0,11.0,24,0.00,,---,0.00,VWS V13.01,2013-03-08 04:37:00,
2013-03-07 21:38:00,56.9,20.5,29.77,South,184,4.0,11.0,24,0.00,,---,0.00,VWS V13.01,2013-03-08 04:38:00,
2013-03-07 21:41:00,56.7,20.3,29.77,SSE,161,5.0,11.0,24,0.00,,---,0.00,VWS V13.01,2013-03-08 04:41:00,
2013-03-07 21:44:00,56.6,20.2,29.77,SSW,192,5.0,11.0,24,0.00,,---,0.00,VWS V13.01,2013-03-08 04:44:00,
2013-03-07 21:46:00,56.4,20.1,29.78,South,175,4.0,7.0,24,0.00,,---,0.00,VWS V13.01,2013-03-08 04:46:00,
2013-03-07 21:49:00,56.2,19.9,29.79,SSE,161,2.0,7.0,24,0.00,,---,0.00,VWS V13.01,2013-03-08 04:49:00,
2013-03-07 21:50:00,56.1,19.8,29.78,SSE,167,4.0,10.0,24,0.00,,---,0.00,VWS V13.01,2013-03-08 04:50:00,
2013-03-07 21:52:00,56.0,19.7,29.79,South,176,4.0,11.0,24,0.00,,---,0.00,VWS V13.01,2013-03-08 04:52:00,
2013-03-07 21:54:00,56.0,19.7,29.79,SSW,198,6.0,11.0,24,0.00,,---,0.00,VWS V13.01,2013-03-08 04:54:00,
2013-03-07 21:55:00,55.9,19.6,29.79,SSW,192,5.0,11.0,24,0.00,,---,0.00,VWS V13.01,2013-03-08 04:55:00,
2013-03-07 21:59:00,55.7,19.5,29.79,SSW,204,6.0,11.0,24,0.00,,---,0.00,VWS V13.01,2013-03-08 04:59:00,
2013-03-07 22:00:00,55.6,19.4,29.79,South,177,2.0,4.0,24,0.00,,---,0.00,VWS V13.01,2013-03-08 05:00:00,
2013-03-07 22:01:00,55.6,19.4,29.77,South,191,4.0,11.0,24,0.00,,---,0.00,VWS V13.01,2013-03-08 05:01:00,
2013-03-07 22:06:00,55.5,18.3,29.77,South,186,5.0,12.0,23,0.00,,---,0.00,VWS V13.01,2013-03-08 05:06:00,
2013-03-07 22:08:00,55.7,18.5,29.77,SW,219,11.0,12.0,23,0.00,,---,0.00,VWS V13.01,2013-03-08 05:08:00,
2013-03-07 22:09:00,55.7,18.5,29.77,SSW,213,4.0,12.0,23,0.00,,---,0.00,VWS V13.01,2013-03-08 05:09:00,
2013-03-07 22:10:00,55.7,18.5,29.77,SSW,211,4.0,12.0,23,0.00,,---,0.00,VWS V13.01,2013-03-08 05:10:00,
2013-03-07 22:13:00,55.6,18.4,29.77,SSW,211,3.0,12.0,23,0.00,,---,0.00,VWS V13.01,2013-03-08 05:13:00,
2013-03-07 22:15:00,55.4,18.2,29.77,South,184,4.0,5.0,23,0.00,,---,0.00,VWS V13.01,2013-03-08 05:15:00,
2013-03-07 22:17:00,55.3,18.1,29.77,South,171,7.0,8.0,23,0.00,,---,0.00,VWS V13.01,2013-03-08 05:17:00,
2013-03-07 22:18:00,55.3,18.1,29.77,South,175,5.0,8.0,23,0.00,,---,0.00,VWS V13.01,2013-03-08 05:18:00,
2013-03-07 22:22:00,55.1,18.0,29.77,South,174,1.0,8.0,23,0.00,,---,0.00,VWS V13.01,2013-03-08 05:22:00,
2013-03-07 22:23:00,55.1,18.0,29.77,South,173,2.0,8.0,23,0.00,,---,0.00,VWS V13.01,2013-03-08 05:23:00,
2013-03-07 22:28:00,54.7,17.6,29.77,SSW,209,2.0,8.0,23,0.00,,---,0.00,VWS V13.01,2013-03-08 05:28:00,
2013-03-07 22:29:00,54.6,17.6,29.77,SSW,209,4.0,8.0,23,0.00,,---,0.00,VWS V13.01,2013-03-08 05:29:00,
2013-03-07 22:30:00,54.6,17.6,29.77,SSW,205,6.0,6.0,23,0.00,,---,0.00,VWS V13.01,2013-03-08 05:30:00,
2013-03-07 22:34:00,54.8,16.7,29.78,SW,221,4.0,10.0,22,0.00,,---,0.00,VWS V13.01,2013-03-08 05:34:00,
2013-03-07 22:36:00,54.9,16.8,29.77,WSW,243,5.0,10.0,22,0.00,,---,0.00,VWS V13.01,2013-03-08 05:36:00,
2013-03-07 22:41:00,55.0,16.9,29.77,WSW,242,16.0,16.0,22,0.00,,---,0.00,VWS V13.01,2013-03-08 05:41:00,
2013-03-07 22:42:00,55.0,16.9,29.77,WSW,244,9.0,16.0,22,0.00,,---,0.00,VWS V13.01,2013-03-08 05:42:00,
2013-03-07 22:44:00,55.1,17.0,29.78,WSW,254,5.0,16.0,22,0.00,,---,0.00,VWS V13.01,2013-03-08 05:44:00,
2013-03-07 22:47:00,55.0,16.9,29.78,WSW,252,7.0,11.0,22,0.00,,---,0.00,VWS V13.01,2013-03-08 05:47:00,
2013-03-07 22:49:00,55.0,16.9,29.78,WSW,256,2.0,11.0,22,0.00,,---,0.00,VWS V13.01,2013-03-08 05:49:00,
2013-03-07 22:51:00,54.8,16.7,29.78,WSW,242,2.0,11.0,22,0.00,,---,0.00,VWS V13.01,2013-03-08 05:51:00,
2013-03-07 22:54:00,54.7,16.6,29.78,WSW,251,3.0,11.0,22,0.00,,---,0.00,VWS V13.01,2013-03-08 05:54:00,
2013-03-07 22:57:00,54.6,16.5,29.78,WSW,238,1.0,11.0,22,0.00,,---,0.00,VWS V13.01,2013-03-08 05:57:00,
2013-03-07 22:59:00,54.5,16.5,29.79,West,259,2.0,11.0,22,0.00,,---,0.00,VWS V13.01,2013-03-08 05:59:00,
2013-03-07 23:00:00,54.4,16.4,29.77,West,259,1.0,2.0,22,0.00,,---,0.00,VWS V13.01,2013-03-08 06:00:00,
2013-03-07 23:01:00,54.4,17.4,29.78,West,259,0.0,2.0,23,0.00,,---,0.00,VWS V13.01,2013-03-08 06:01:00,
2013-03-07 23:05:00,54.1,17.1,29.78,SW,232,3.0,3.0,23,0.00,,---,0.00,VWS V13.01,2013-03-08 06:05:00,
2013-03-07 23:06:00,53.9,17.0,29.78,SW,232,2.0,3.0,23,0.00,,---,0.00,VWS V13.01,2013-03-08 06:06:00,
2013-03-07 23:09:00,53.6,16.7,29.79,SSW,211,3.0,4.0,23,0.00,,---,0.00,VWS V13.01,2013-03-08 06:09:00,
2013-03-07 23:12:00,53.4,16.5,29.79,SSW,207,4.0,4.0,23,0.00,,---,0.00,VWS V13.01,2013-03-08 06:12:00,
2013-03-07 23:13:00,53.3,16.5,29.80,SSW,207,4.0,4.0,23,0.00,,---,0.00,VWS V13.01,2013-03-08 06:13:00,
2013-03-07 23:14:00,53.1,16.3,29.80,SSE,150,5.0,5.0,23,0.00,,---,0.00,VWS V13.01,2013-03-08 06:14:00,
2013-03-07 23:20:00,52.8,17.0,29.80,SSE,150,3.0,6.0,24,0.00,,---,0.00,VWS V13.01,2013-03-08 06:20:00,
2013-03-07 23:21:00,52.7,16.9,29.80,SSE,150,3.0,6.0,24,0.00,,---,0.00,VWS V13.01,2013-03-08 06:21:00,
2013-03-07 23:22:00,52.7,16.9,29.80,SSE,148,6.0,6.0,24,0.00,,---,0.00,VWS V13.01,2013-03-08 06:22:00,
2013-03-07 23:26:00,53.1,16.3,29.80,SE,142,1.0,6.0,23,0.00,,---,0.00,VWS V13.01,2013-03-08 06:26:00,
2013-03-07 23:29:00,53.2,16.4,29.80,SE,142,3.0,6.0,23,0.00,,---,0.00,VWS V13.01,2013-03-08 06:29:00,
2013-03-07 23:31:00,53.4,16.5,29.80,SE,142,2.0,3.0,23,0.00,,---,0.00,VWS V13.01,2013-03-08 06:31:00,
2013-03-07 23:32:00,53.4,16.5,29.80,SE,142,2.0,3.0,23,0.00,,---,0.00,VWS V13.01,2013-03-08 06:32:00,
2013-03-07 23:35:00,53.3,16.5,29.81,SE,142,0.0,3.0,23,0.00,,---,0.00,VWS V13.01,2013-03-08 06:35:00,
2013-03-07 23:36:00,53.3,16.5,29.81,SE,142,0.0,3.0,23,0.00,,---,0.00,VWS V13.01,2013-03-08 06:36:00,
2013-03-07 23:40:00,53.1,16.3,29.81,SE,142,2.0,4.0,23,0.00,,---,0.00,VWS V13.01,2013-03-08 06:40:00,
2013-03-07 23:42:00,53.0,16.2,29.81,SE,142,2.0,4.0,23,0.00,,---,0.00,VWS V13.01,2013-03-08 06:42:00,
2013-03-07 23:43:00,52.9,16.1,29.81,SE,142,0.0,4.0,23,0.00,,---,0.00,VWS V13.01,2013-03-08 06:43:00,
2013-03-07 23:45:00,52.7,16.0,29.81,SE,142,4.0,4.0,23,0.00,,---,0.00,VWS V13.01,2013-03-08 06:45:00,
2013-03-07 23:48:00,52.5,15.8,29.81,SE,142,0.0,4.0,23,0.00,,---,0.00,VWS V13.01,2013-03-08 06:48:00,
2013-03-07 23:49:00,52.4,16.7,29.83,SE,142,0.0,4.0,24,0.00,,---,0.00,VWS V13.01,2013-03-08 06:49:00,
2013-03-07 23:53:00,52.2,16.5,29.82,SE,142,0.0,4.0,24,0.00,,---,0.00,VWS V13.01,2013-03-08 06:53:00,
2013-03-07 23:54:00,52.2,16.5,29.82,SE,142,0.0,4.0,24,0.00,,---,0.00,VWS V13.01,2013-03-08 06:54:00,
2013-03-07 23:55:00,52.2,16.5,29.82,SE,142,0.0,4.0,24,0.00,,---,0.00,VWS V13.01,2013-03-08 06:55:00,
2013-03-07 23:57:00,52.3,16.6,29.83,SE,142,1.0,4.0,24,0.00,,---,0.00,VWS V13.01,2013-03-08 06:57:00,
2013-03-07 23:58:00,52.3,16.6,29.83,SE,142,2.0,4.0,24,0.00,,---,0.00,VWS V13.01,2013-03-08 06:58:00,